Skip Page Navigation
NASA JPL Caltech
NASA Logo - Jet Propulsion Laboratory + View the NASA Portal
+ Near-Earth Object (NEO) Program
Search JPL
JPL Home Earth Solar System Stars & Galaxies Technology
JPL Solar System Dynamics
BODIES ORBITS EPHEMERIDES TOOLS PHYSICAL DATA DISCOVERY FAQ SITE MAP
JPL Small-Body Database Browser
Search: [ help ]  
(2012 HM)
Classification: Apollo [NEO]          SPK-ID: 3602622
Ephemeris | Orbit Diagram | Orbital Elements | Physical Parameters | Close-Approach Data ]

[ hide orbit diagram ]
Orbit Diagram
Note: Make sure you have Java enabled on your browser to see the applet. This applet is provided as a 3D orbit visualization tool. The applet was implemented using 2-body methods, and hence should not be used for determining accurate long-term trajectories (over several years or decades) or planetary encounter circumstances. For accurate long-term ephemerides, please instead use our Horizons system.
Orbit Viewer

Additional Notes: the orbits shown in the applet are color coded. The planets are white lines, and the asteroid/comet is a blue line. The bright white line indicates the portion of the orbit that is above the ecliptic plane, and the darker portion is below the ecliptic plane. Likewise for the asteroid/comet orbit, the light blue indicates the portion above the ecliptic plane, and the dark blue the portion below the ecliptic plane.

Orbit Viewer applet originally written and kindly provided by Osamu Ajiki (AstroArts), and further modified by Ron Baalke (JPL).


Orbital Elements at Epoch 2456400.5 (2013-Apr-18.0) TDB
Reference: JPL 29 (heliocentric ecliptic J2000)
 Element Value Uncertainty (1-sigma)   Units 
e .1975282100466433 1.3693e-06  
a 1.175065187715912 1.4908e-06 AU
q .9429566644982649 4.6838e-07 AU
i 7.149209652626809 3.8114e-05 deg
node 39.04530684327528 7.3359e-06 deg
peri 230.1715327234227 8.4736e-05 deg
M 239.360358731326 0.00043503 deg
tp 2456556.411770529490
(2013-Sep-20.91177053)
0.0008577 JED
period 465.2553406190452
1.27
0.00088541
2.424e-06
d
yr
n .773768656843363 1.4725e-06 deg/d
Q 1.407173710933559 1.7853e-06 AU
  Orbit Determination Parameters
   # obs. used (total)      524  
   # delay obs. used      0  
   # Doppler obs. used      3  
   data-arc span      11 days  
   first obs. used      2012-04-16  
   last obs. used      2012-04-27  
   planetary ephem.      DE405  
   SB-pert. ephem.      SB405-CPV-2  
   condition code      2  
   fit RMS      .26212  
   data source      ORB  
   producer      Otto Matic  
   solution date      2012-May-04 02:50:41  

Additional Information
 Earth MOID = .0029539 AU 
 T_jup = 5.353 
[ show covariance matrix ]

Ephemeris | Orbit Diagram | Orbital Elements | Physical Parameters | Close-Approach Data ]

Physical Parameter Table
Parameter Symbol Value Units Sigma Reference Notes
absolute magnitude H 24.063 mag .42962 29 autocmod 2.5b

[ show close-approach data ]
Ephemeris | Orbit Diagram | Orbital Elements | Physical Parameters | Close-Approach Data ]
ABOUT SSD CREDITS/AWARDS PRIVACY/COPYRIGHT GLOSSARY LINKS
FirstGov 2013-May-21 21:07 UT
(server date/time)  
NASA Home Page
Site Manager:   Donald K. Yeomans
Webmaster  Alan B. Chamberlin